SCP
0 0 0 0 0 0 0 0 0 0 0 0 0 0 0 0 0 0 0 0 0 -0 -0 -0 -0 -0 -0 -0 0 -0 0 0 0 0 -0 0 0 0 0 -0 -0 -0 0 -0 -0 0 -0
0 0 0 0 0 0 0 0 0 0 0 0 0 0 0 0 0 0 0 0 0 -0 -0 -0 -0 -0 -0 0 0 -0 0 0 -0 -0 -0 0 0 0 -0 -0 0 -0 0 0 -0 -0 0
0 0 0 0 0 0 0 0 0 0 0 0 0 0 0 0 0 0 0 0 0 0 0 -0 -0 0 0 0 0 -0 0 -0 0 -0 0 0 0 -0 -0 0 -0 0 -0 0 0 0 -0
0 0 0 0 0 0 0 0 0 0 0 0 0 0 0 0 0 0 0 0 -0 0 0 0 0 0 0 0 0 0 0 0 0 -0 -0 0 0 -0 -0 0 -0 -0 0 -0 -0 -0 0
0 0 0 0 0 0 0 0 0 0 0 0 0 0 0 0 0 0 0 -0 -0 0 0 0 -0 0 0 -0 0 0 -0 0 0 0 0 0 0 0 -0 -0 -0 0 -0 -0 0 0 0
0 0 0 0 0 0 0 0 0 0 0 0 0 0 0 0 0 0 0 0 0 0 0 -0 0 0 0 0 0 0 0 0 0 -0 0 0 0 -0 -0 -0 0 0 0 0 0 0 0
0 0 0 0 0 0 0 0 0 0 0 0 0 0 0 0 0 0 0 0 0 -0 -0 0 0 0 0 0 0 0 0 0 0 0 -0 -0 -0 -0 0 0 0 0 0 0 0 0 0
0 0 0 0 0 0 0 0 0 0 0 0 0 0 0 0 0 0 0 0 0 0 0 0 -0 -0 0 0 0 0 0 0 0 0 0 0 0 0 0 0 0 0 0 0 0 0 0
0 0 0 0 0 0 0 0 0 0 0 0 0 0 0 0 0 0 0 0 0 0 0 0 0 0 0 0 0 0 0 0 0 0 0 0 0 0 0 0 0 0 0 0 0 0 0
0 0 0 0 0 0 0 0 0 0 0 0 0 0 0 0 0 0 0 0 0 0 -0 0 0 0 0 0 0 0 0 0 0 0 0 0 0 0 0 0 0 0 0 0 0 0 0
0 0 0 0 0 0 0 0 0 0 0 0 0 0 0 0 0 0 0 0 0 0 0 0 0 0 0 0 0 0 0 0 0 0 0 0 0 0 0 0 0 0 0 0 0 0 0
0 0 0 0 0 0 0 0 0 0 0 0 0 0 0 0 0 0 0 0 0 0 0 0 0 0 0 0 0 0 0 0 0 0 0 0 0 0 0 0 0 0 0 0 0 0 0
0 0 0 0 0 0 0 0 0 0 0 0 0 0 0 0 0 0 0 0 0 0 0 0 0 -0 -0 0 0 -0 0 0 0 0 -0 0 0 0 0 0 0 0 -0 0 0 0 0
0 0 0 0 0 0 0 0 0 0 0 0 0 -0 0 0 0 0 0 0 0 0 0 0 0 0 -0 0 0 0 0 0 0 -0 0 -0 -0 0 0 0 0 0 -0 0 0 0 0
0 0 0 0 0 0 0 0 0 0 0 0 0 0 0 0 0 0 0 0 0 0 0 0 0 -0 0 0 0 0 0 0 0 0 -0 0 0 0 0 0 -0 0 0 0 -0 0 0
0 0 0 0 0 0 0 0 0 0 0 0 0 0 0 0 0 0 0 0 0 0 0 0 0 0 0 0 -0 -0 0 0 0 0 0 0 0 0 0 0 0 0 0 -0 0 0 0
0 0 0 0 0 0 0 0 0 0 0 0 0 0 0 0 0 0 0 0 0 0 0 0 0 0 0 0 -0 0 0 0 0 -0 -0 -0 -0 0 0 0 0 0 0 0 0 0 0
0 0 0 0 0 0 0 0 0 0 -0 0 0 0 0 0 0 0 0 0 0 0 0 0 0 0 0 0 0 -0 0 0 0 0 0 0 0 0 0 0 0 0 0 0 0 0 0
0 0 0 0 0 0 0 0 0 0 0 0 0 0 0 0 0 0 0 0 0 0 0 0 0 0 0 0 0 0 0 0 0 0 0 0 0 0 0 0 0 0 0 0 0 0 0
0 0 0 0 0 0 0 0 0 0 0 0 0 0 0 0 0 0 0 0 0 0 0 0 0 0 0 0 0 0 0 0 0 0 0 0 0 0 0 0 0 0 0 0 0 0 0
0 0 0 0 0 0 0 0 0 0 0 0 0 0 0 0 0 0 0 0 0 0 0 0 0 0 0 0 0 0 0 0 0 0 0 0 0 0 0 0 0 0 0 0 0 0 0
0 0 0 0 0 0 0 0 0 0 0 0 0 0 0 0 0 0 0 0 0 0 0 0 0 0 0 0 0 0 0 0 0 0 0 0 0 0 0 0 0 0 0 0 0 0 0
0 0 0 0 0 0 0 0 0 0 0 0 0 0 0 0 0 0 0 0 0 0 0 0 0 0 0 0 0 0 0 0 0 0 0 0 0 0 0 0 0 0 0 0 0 0 0
0 0 0 0 0 0 0 0 0 0 0 0 0 0 0 0 0 0 0 0 0 0 0 0 0 0 0 0 0 0 0 0 0 0 0 1 1 0 0 0 0 0 0 0 0 0 0
0 0 0 0 0 0 0 0 0 0 0 0 0 0 0 0 0 0 0 0 0 0 0 0 0 0 0 0 0 0 0 0 0 0 0 0 0 0 0 0 0 0 0 0 0 0 0
0 0 0 0 0 0 0 0 0 0 0 0 0 0 0 0 0 0 0 0 0 0 0 0 0 0 0 0 0 0 0 0 0 0 0 0 0 0 0 0 0 0 0 0 0 0 0
0 0 0 0 0 0 0 0 0 0 0 0 0 0 0 0 0 0 0 0 0 0 0 0 0 0 0 0 0 0 0 0 0 0 0 0 0 0 0 0 0 0 0 0 0 0 0
0 -0 -0 -0 0 0 0 0 0 0 0 0 0 0 0 0 0 0 0 0 0 0 0 0 0 0 0 0 0 0 0 0 0 0 0 0 0 0 0 0 0 0 0 0 0 0 0
0 0 -0 0 0 0 0 0 0 0 0 0 0 0 0 0 0 0 0 0 0 0 0 0 0 0 0 0 0 0 0 0 0 0 0 0 0 0 0 0 0 0 0 0 0 0 0
Wind_Speed_500mb
10 13 15 18 18 16 14 15 18 19 21 24 22 20 19 18 15 12 11 10 7 7 8 8 14 22 15 5 3 8 13 13 14 17 14 15 18 13 13 3 8 14 2 1 5 6 15
18 18 17 12 9 8 8 11 14 16 19 22 20 19 19 16 14 11 11 10 9 9 8 9 17 23 7 10 8 12 14 12 11 12 12 10 2 5 0 3 10 1 4 4 2 5 7
34 29 25 21 14 9 3 6 11 15 18 20 17 19 18 17 13 12 12 10 9 9 7 11 18 23 3 11 10 12 17 11 11 10 6 6 5 7 1 12 2 8 15 11 7 6 3
38 36 33 30 26 21 15 6 3 11 16 18 18 18 18 15 14 13 11 10 10 10 8 12 18 12 3 8 9 8 9 9 10 11 8 9 7 7 6 1 10 12 14 19 14 10 4
35 35 33 31 30 28 26 20 11 2 10 13 15 17 16 15 14 12 11 9 10 9 9 12 11 5 14 12 10 7 11 5 9 11 11 8 6 5 9 23 18 11 14 12 12 1 7
32 32 31 30 30 29 29 28 23 13 4 7 11 13 14 14 14 13 9 8 8 7 10 7 3 5 8 3 3 11 13 12 7 18 12 6 11 15 15 14 10 12 6 11 11 7 9
27 27 27 28 29 28 29 29 28 25 13 5 8 11 14 16 16 12 10 9 6 4 8 5 0 10 5 6 16 8 8 11 12 11 12 11 20 5 15 6 10 6 5 5 9 6 8
22 22 25 26 27 28 29 29 29 26 20 9 6 11 14 15 14 13 14 7 4 5 7 9 11 8 4 9 10 8 11 12 15 10 11 16 17 10 6 11 6 3 6 9 4 7 17
19 19 21 23 24 26 27 27 26 25 22 15 5 10 13 15 16 21 17 8 7 0 9 9 8 5 7 9 8 13 9 10 10 14 5 12 20 9 11 13 7 9 18 16 18 3 4
16 16 18 21 23 25 26 26 26 25 21 16 8 10 16 19 17 23 10 5 5 7 13 15 13 10 10 7 11 5 5 6 11 4 4 4 6 14 14 9 11 5 13 14 17 17 10
12 13 14 17 20 23 25 26 26 24 20 16 9 10 17 21 22 12 11 8 7 10 11 11 14 7 12 12 11 7 7 5 3 10 10 11 17 18 9 15 8 14 9 11 10 7 15
7 9 11 15 18 22 24 26 27 25 21 15 7 9 19 20 17 8 4 14 10 12 7 12 9 13 20 16 9 11 6 6 5 1 7 19 8 5 17 11 6 6 11 6 8 7 11
3 6 9 12 16 20 23 26 27 25 22 14 6 10 19 17 10 3 15 8 11 7 6 10 9 13 16 17 13 13 14 11 8 15 21 18 12 17 5 9 13 9 21 5 6 5 8
1 3 7 12 17 20 23 26 28 26 21 13 5 12 15 13 7 6 15 10 9 6 3 5 5 12 20 19 13 11 12 10 6 15 15 17 18 14 3 9 11 11 15 13 15 13 19
5 5 7 12 17 21 24 26 27 26 20 11 4 11 13 11 6 10 13 11 6 5 7 8 10 20 18 17 8 15 11 3 2 10 10 12 5 13 4 5 8 7 7 6 10 9 12
8 6 8 12 17 21 25 27 29 26 20 9 6 13 12 13 7 10 13 9 6 4 10 5 4 11 25 25 17 13 14 4 5 4 4 3 5 6 12 9 15 9 8 8 6 13 18
12 9 9 13 17 21 25 29 29 27 20 7 10 16 14 18 9 15 13 9 6 5 10 7 5 5 10 13 19 15 6 10 3 4 7 5 7 14 11 10 6 10 9 2 8 7 16
15 12 11 13 16 20 24 28 29 28 20 5 10 10 14 22 15 9 13 5 2 2 5 3 7 2 1 9 15 16 9 5 7 3 7 6 7 8 3 8 2 5 5 4 11 17 8
19 15 13 13 15 17 21 25 26 27 23 11 2 5 9 27 12 16 8 9 1 5 6 4 2 3 3 6 7 6 6 4 2 8 5 10 6 8 14 13 10 9 6 3 1 7 18
24 21 16 14 15 16 18 20 23 22 20 12 2 8 9 10 3 11 17 14 12 3 8 6 5 4 5 5 4 11 10 5 5 4 6 1 3 11 15 16 9 7 11 7 8 11 18
27 24 20 16 15 15 15 18 17 18 15 9 5 4 1 12 15 16 18 8 14 11 9 5 9 10 4 7 6 8 7 14 9 8 5 4 4 4 6 8 1 2 6 7 14 18 16
31 28 23 20 16 15 14 14 13 13 11 8 2 3 2 7 8 20 10 15 13 12 8 12 10 8 8 5 4 6 5 4 5 8 4 1 4 6 8 4 4 10 6 10 11 16 16
30 29 27 23 19 15 12 11 10 10 8 6 5 6 3 6 11 15 13 14 10 5 8 2 6 11 14 7 6 12 14 11 8 1 6 4 9 8 8 3 8 17 7 11 13 16 16
29 30 28 25 21 16 12 9 8 6 7 8 5 4 6 9 13 11 12 12 11 4 1 3 4 7 5 17 21 15 13 13 13 15 4 9 7 4 9 5 21 9 4 8 16 23 22
34 32 32 28 25 20 16 11 7 5 3 3 3 4 3 5 5 13 12 11 8 4 3 2 9 4 10 3 9 8 9 8 8 10 8 2 6 3 12 15 12 22 17 9 16 23 14
41 36 36 34 29 24 20 16 11 8 7 2 2 6 1 8 7 4 9 5 9 10 11 6 5 5 9 10 9 15 12 12 9 10 5 6 4 11 7 18 24 18 9 0 6 21 10
45 41 40 41 34 30 25 22 17 12 11 8 6 9 4 7 1 2 5 3 2 5 7 6 3 5 7 11 16 13 13 5 9 12 9 10 9 18 17 16 19 12 4 4 16 10 8
46 40 43 47 37 36 30 26 21 17 15 12 11 14 12 7 3 1 1 3 3 5 12 7 7 10 9 13 14 9 14 7 8 6 8 14 9 12 6 18 24 9 6 9 12 7 5
50 43 50 42 29 34 32 29 24 20 18 15 7 16 18 8 5 14 13 12 7 0 4 3 6 5 7 9 5 3 10 5 12 13 6 9 6 9 6 12 4 2 11 4 2 4 1
Wind_Direction_500mb
166 160 178 196 204 208 208 218 223 224 225 228 229 231 235 240 241 241 247 245 244 230 225 277 319 336 14 257 79 186 159 135 138 145 166 173 185 216 230 198 200 233 31 342 225 212 213
107 122 151 158 174 190 210 222 227 226 227 230 227 227 231 230 234 232 234 231 231 218 228 294 326 342 6 110 106 147 156 157 167 158 169 166 192 274 14 177 245 277 273 121 191 179 214
97 101 94 94 98 101 136 226 231 230 229 231 227 226 227 226 224 218 226 221 225 212 243 307 328 345 328 46 89 123 132 158 178 178 158 217 273 276 252 170 254 192 213 182 60 167 139
89 88 89 87 82 76 72 66 231 231 229 226 222 224 223 225 215 212 219 225 211 207 253 311 330 349 276 21 78 117 161 182 200 207 216 262 240 262 245 116 190 211 214 209 73 183 133
85 83 81 79 76 69 64 59 55 177 215 216 213 215 213 213 208 207 216 221 201 212 271 313 331 7 114 73 59 86 137 117 178 199 197 148 159 257 203 224 179 179 66 75 111 316 170
85 83 79 73 68 63 59 56 52 59 110 189 199 202 200 198 195 206 204 195 182 233 276 307 8 218 134 53 73 110 117 142 132 137 143 191 205 220 203 251 343 30 117 107 51 73 240
85 81 77 71 66 59 56 51 48 50 59 117 178 183 186 186 192 190 172 152 203 226 241 280 336 311 77 334 137 136 133 135 145 216 201 179 242 291 33 32 31 46 28 28 103 77 264
86 79 74 68 61 55 51 47 45 44 49 64 145 170 176 181 175 168 160 195 176 123 202 241 256 279 279 145 167 153 156 191 203 183 188 204 234 87 124 118 144 305 306 39 165 41 281
91 78 71 66 60 53 49 45 42 39 37 46 103 162 163 161 164 161 163 180 165 194 238 175 213 228 142 169 163 143 189 171 191 186 216 294 79 124 172 170 191 49 351 342 328 335 214
91 82 68 59 53 47 41 39 35 36 30 35 60 145 153 151 162 162 162 219 269 195 211 142 185 156 182 192 174 185 210 227 193 210 170 39 103 176 188 105 315 329 4 314 300 275 336
93 76 62 54 47 39 34 30 30 27 26 28 48 146 155 154 157 148 212 270 160 166 191 122 140 159 189 227 120 162 177 241 94 124 241 91 143 168 173 56 343 47 353 341 308 258 224
101 73 54 40 36 29 26 19 20 20 22 24 45 146 151 142 147 182 234 146 147 224 129 149 170 185 186 191 148 127 172 82 89 173 180 107 110 337 87 96 53 132 272 230 217 218 215
95 57 36 25 20 19 16 13 8 14 16 25 45 147 153 150 161 164 140 164 194 249 146 131 164 194 211 170 150 182 170 165 220 174 157 157 126 117 161 172 156 307 344 300 293 333 5
192 3 7 8 5 8 4 4 1 4 15 21 57 164 167 170 163 129 156 223 195 87 86 98 211 190 200 171 161 162 176 170 208 261 164 190 171 181 96 340 13 40 335 16 337 349 340
242 295 338 350 356 355 355 355 354 358 7 17 89 170 179 190 180 157 214 210 76 68 14 346 189 197 172 177 235 191 214 212 164 215 245 210 147 120 71 133 310 101 19 12 309 190 271
247 278 316 336 346 347 348 348 350 351 355 17 133 154 177 184 161 164 229 64 107 38 333 291 220 250 182 179 200 213 178 122 152 207 296 155 223 211 141 155 72 340 106 303 295 336 326
245 267 304 325 335 339 343 344 345 347 351 17 140 175 201 183 154 200 213 115 135 92 353 323 11 169 224 166 223 197 162 110 26 144 212 195 270 139 191 218 346 173 186 43 278 331 322
244 263 291 309 321 331 337 340 345 347 356 13 148 187 199 178 200 228 202 163 136 4 330 300 299 325 167 183 195 217 236 40 15 277 215 151 261 238 77 88 353 319 14 328 332 340 324
240 247 265 289 309 324 331 338 342 350 3 29 63 93 167 179 201 201 128 148 201 276 321 311 319 0 59 106 159 177 154 84 66 210 210 179 199 202 174 176 183 236 142 106 346 273 300
233 244 257 274 295 313 322 332 339 347 356 11 295 169 154 180 287 216 184 196 204 200 274 269 296 258 190 130 82 143 145 95 116 135 111 179 168 270 290 38 58 178 195 223 272 289 327
229 236 246 262 281 297 314 326 338 342 351 6 353 89 245 179 186 207 199 181 218 218 214 234 207 243 198 176 157 123 127 140 129 129 114 272 200 200 92 94 100 308 272 241 275 317 304
231 235 243 255 266 282 302 319 333 340 348 36 359 278 154 122 144 172 169 205 209 184 225 178 244 175 196 204 5 139 147 206 86 143 129 15 165 178 162 146 263 281 290 279 276 311 300
237 234 237 245 255 267 285 308 328 345 6 44 65 52 331 164 168 207 180 169 177 196 182 292 302 234 204 73 47 69 72 77 79 165 136 178 151 211 268 144 267 261 291 297 302 293 325
248 244 236 238 243 253 262 284 315 343 26 68 56 68 279 156 212 193 168 188 176 122 34 26 14 255 84 108 108 101 101 103 100 80 60 155 170 243 303 207 262 50 72 281 291 295 302
237 249 247 236 237 241 249 257 284 303 331 60 85 80 307 186 204 174 175 180 184 182 197 347 51 56 166 229 195 175 173 197 114 56 63 305 236 208 273 276 308 276 184 228 273 290 318
233 244 257 243 236 237 242 247 254 270 273 266 173 170 8 282 171 83 191 174 207 200 179 147 54 140 167 240 221 220 224 237 172 151 101 128 240 268 269 282 285 329 60 352 258 279 70
229 244 253 252 238 236 237 242 242 247 254 245 220 191 171 256 131 248 222 234 208 218 263 136 119 169 192 220 226 223 226 281 228 238 177 208 244 266 285 287 294 32 29 160 260 332 68
230 245 254 256 248 235 230 234 235 233 238 232 227 203 184 233 266 209 290 262 243 237 252 93 208 200 216 240 247 201 261 198 255 344 267 260 261 264 306 284 284 56 146 265 20 37 75
232 241 254 258 236 224 219 224 226 225 226 220 221 211 206 212 278 227 214 208 195 71 296 240 326 338 337 256 233 292 225 201 273 235 175 245 291 319 254 310 32 322 265 335 291 15 122
Wind_Speed_850mb
10 13 15 18 18 16 14 15 18 19 21 24 22 20 19 18 15 12 11 10 7 7 8 8 14 22 15 5 3 8 13 13 14 17 14 15 18 13 13 3 8 14 2 1 5 6 15
18 18 17 12 9 8 8 11 14 16 19 22 20 19 19 16 14 11 11 10 9 9 8 9 17 23 7 10 8 12 14 12 11 12 12 10 2 5 0 3 10 1 4 4 2 5 7
34 29 25 21 14 9 3 6 11 15 18 20 17 19 18 17 13 12 12 10 9 9 7 11 18 23 3 11 10 12 17 11 11 10 6 6 5 7 1 12 2 8 15 11 7 6 3
38 36 33 30 26 21 15 6 3 11 16 18 18 18 18 15 14 13 11 10 10 10 8 12 18 12 3 8 9 8 9 9 10 11 8 9 7 7 6 1 10 12 14 19 14 10 4
35 35 33 31 30 28 26 20 11 2 10 13 15 17 16 15 14 12 11 9 10 9 9 12 11 5 14 12 10 7 11 5 9 11 11 8 6 5 9 23 18 11 14 12 12 1 7
32 32 31 30 30 29 29 28 23 13 4 7 11 13 14 14 14 13 9 8 8 7 10 7 3 5 8 3 3 11 13 12 7 18 12 6 11 15 15 14 10 12 6 11 11 7 9
27 27 27 28 29 28 29 29 28 25 13 5 8 11 14 16 16 12 10 9 6 4 8 5 0 10 5 6 16 8 8 11 12 11 12 11 20 5 15 6 10 6 5 5 9 6 8
22 22 25 26 27 28 29 29 29 26 20 9 6 11 14 15 14 13 14 7 4 5 7 9 11 8 4 9 10 8 11 12 15 10 11 16 17 10 6 11 6 3 6 9 4 7 17
19 19 21 23 24 26 27 27 26 25 22 15 5 10 13 15 16 21 17 8 7 0 9 9 8 5 7 9 8 13 9 10 10 14 5 12 20 9 11 13 7 9 18 16 18 3 4
16 16 18 21 23 25 26 26 26 25 21 16 8 10 16 19 17 23 10 5 5 7 13 15 13 10 10 7 11 5 5 6 11 4 4 4 6 14 14 9 11 5 13 14 17 17 10
12 13 14 17 20 23 25 26 26 24 20 16 9 10 17 21 22 12 11 8 7 10 11 11 14 7 12 12 11 7 7 5 3 10 10 11 17 18 9 15 8 14 9 11 10 7 15
7 9 11 15 18 22 24 26 27 25 21 15 7 9 19 20 17 8 4 14 10 12 7 12 9 13 20 16 9 11 6 6 5 1 7 19 8 5 17 11 6 6 11 6 8 7 11
3 6 9 12 16 20 23 26 27 25 22 14 6 10 19 17 10 3 15 8 11 7 6 10 9 13 16 17 13 13 14 11 8 15 21 18 12 17 5 9 13 9 21 5 6 5 8
1 3 7 12 17 20 23 26 28 26 21 13 5 12 15 13 7 6 15 10 9 6 3 5 5 12 20 19 13 11 12 10 6 15 15 17 18 14 3 9 11 11 15 13 15 13 19
5 5 7 12 17 21 24 26 27 26 20 11 4 11 13 11 6 10 13 11 6 5 7 8 10 20 18 17 8 15 11 3 2 10 10 12 5 13 4 5 8 7 7 6 10 9 12
8 6 8 12 17 21 25 27 29 26 20 9 6 13 12 13 7 10 13 9 6 4 10 5 4 11 25 25 17 13 14 4 5 4 4 3 5 6 12 9 15 9 8 8 6 13 18
12 9 9 13 17 21 25 29 29 27 20 7 10 16 14 18 9 15 13 9 6 5 10 7 5 5 10 13 19 15 6 10 3 4 7 5 7 14 11 10 6 10 9 2 8 7 16
15 12 11 13 16 20 24 28 29 28 20 5 10 10 14 22 15 9 13 5 2 2 5 3 7 2 1 9 15 16 9 5 7 3 7 6 7 8 3 8 2 5 5 4 11 17 8
19 15 13 13 15 17 21 25 26 27 23 11 2 5 9 27 12 16 8 9 1 5 6 4 2 3 3 6 7 6 6 4 2 8 5 10 6 8 14 13 10 9 6 3 1 7 18
24 21 16 14 15 16 18 20 23 22 20 12 2 8 9 10 3 11 17 14 12 3 8 6 5 4 5 5 4 11 10 5 5 4 6 1 3 11 15 16 9 7 11 7 8 11 18
27 24 20 16 15 15 15 18 17 18 15 9 5 4 1 12 15 16 18 8 14 11 9 5 9 10 4 7 6 8 7 14 9 8 5 4 4 4 6 8 1 2 6 7 14 18 16
31 28 23 20 16 15 14 14 13 13 11 8 2 3 2 7 8 20 10 15 13 12 8 12 10 8 8 5 4 6 5 4 5 8 4 1 4 6 8 4 4 10 6 10 11 16 16
30 29 27 23 19 15 12 11 10 10 8 6 5 6 3 6 11 15 13 14 10 5 8 2 6 11 14 7 6 12 14 11 8 1 6 4 9 8 8 3 8 17 7 11 13 16 16
29 30 28 25 21 16 12 9 8 6 7 8 5 4 6 9 13 11 12 12 11 4 1 3 4 7 5 17 21 15 13 13 13 15 4 9 7 4 9 5 21 9 4 8 16 23 22
34 32 32 28 25 20 16 11 7 5 3 3 3 4 3 5 5 13 12 11 8 4 3 2 9 4 10 3 9 8 9 8 8 10 8 2 6 3 12 15 12 22 17 9 16 23 14
41 36 36 34 29 24 20 16 11 8 7 2 2 6 1 8 7 4 9 5 9 10 11 6 5 5 9 10 9 15 12 12 9 10 5 6 4 11 7 18 24 18 9 0 6 21 10
45 41 40 41 34 30 25 22 17 12 11 8 6 9 4 7 1 2 5 3 2 5 7 6 3 5 7 11 16 13 13 5 9 12 9 10 9 18 17 16 19 12 4 4 16 10 8
46 40 43 47 37 36 30 26 21 17 15 12 11 14 12 7 3 1 1 3 3 5 12 7 7 10 9 13 14 9 14 7 8 6 8 14 9 12 6 18 24 9 6 9 12 7 5
50 43 50 42 29 34 32 29 24 20 18 15 7 16 18 8 5 14 13 12 7 0 4 3 6 5 7 9 5 3 10 5 12 13 6 9 6 9 6 12 4 2 11 4 2 4 1
Wind_Direction_850mb
166 160 178 196 204 208 208 218 223 224 225 228 229 231 235 240 241 241 247 245 244 230 225 277 319 336 14 257 79 186 159 135 138 145 166 173 185 216 230 198 200 233 31 342 225 212 213
107 122 151 158 174 190 210 222 227 226 227 230 227 227 231 230 234 232 234 231 231 218 228 294 326 342 6 110 106 147 156 157 167 158 169 166 192 274 14 177 245 277 273 121 191 179 214
97 101 94 94 98 101 136 226 231 230 229 231 227 226 227 226 224 218 226 221 225 212 243 307 328 345 328 46 89 123 132 158 178 178 158 217 273 276 252 170 254 192 213 182 60 167 139
89 88 89 87 82 76 72 66 231 231 229 226 222 224 223 225 215 212 219 225 211 207 253 311 330 349 276 21 78 117 161 182 200 207 216 262 240 262 245 116 190 211 214 209 73 183 133
85 83 81 79 76 69 64 59 55 177 215 216 213 215 213 213 208 207 216 221 201 212 271 313 331 7 114 73 59 86 137 117 178 199 197 148 159 257 203 224 179 179 66 75 111 316 170
85 83 79 73 68 63 59 56 52 59 110 189 199 202 200 198 195 206 204 195 182 233 276 307 8 218 134 53 73 110 117 142 132 137 143 191 205 220 203 251 343 30 117 107 51 73 240
85 81 77 71 66 59 56 51 48 50 59 117 178 183 186 186 192 190 172 152 203 226 241 280 336 311 77 334 137 136 133 135 145 216 201 179 242 291 33 32 31 46 28 28 103 77 264
86 79 74 68 61 55 51 47 45 44 49 64 145 170 176 181 175 168 160 195 176 123 202 241 256 279 279 145 167 153 156 191 203 183 188 204 234 87 124 118 144 305 306 39 165 41 281
91 78 71 66 60 53 49 45 42 39 37 46 103 162 163 161 164 161 163 180 165 194 238 175 213 228 142 169 163 143 189 171 191 186 216 294 79 124 172 170 191 49 351 342 328 335 214
91 82 68 59 53 47 41 39 35 36 30 35 60 145 153 151 162 162 162 219 269 195 211 142 185 156 182 192 174 185 210 227 193 210 170 39 103 176 188 105 315 329 4 314 300 275 336
93 76 62 54 47 39 34 30 30 27 26 28 48 146 155 154 157 148 212 270 160 166 191 122 140 159 189 227 120 162 177 241 94 124 241 91 143 168 173 56 343 47 353 341 308 258 224
101 73 54 40 36 29 26 19 20 20 22 24 45 146 151 142 147 182 234 146 147 224 129 149 170 185 186 191 148 127 172 82 89 173 180 107 110 337 87 96 53 132 272 230 217 218 215
95 57 36 25 20 19 16 13 8 14 16 25 45 147 153 150 161 164 140 164 194 249 146 131 164 194 211 170 150 182 170 165 220 174 157 157 126 117 161 172 156 307 344 300 293 333 5
192 3 7 8 5 8 4 4 1 4 15 21 57 164 167 170 163 129 156 223 195 87 86 98 211 190 200 171 161 162 176 170 208 261 164 190 171 181 96 340 13 40 335 16 337 349 340
242 295 338 350 356 355 355 355 354 358 7 17 89 170 179 190 180 157 214 210 76 68 14 346 189 197 172 177 235 191 214 212 164 215 245 210 147 120 71 133 310 101 19 12 309 190 271
247 278 316 336 346 347 348 348 350 351 355 17 133 154 177 184 161 164 229 64 107 38 333 291 220 250 182 179 200 213 178 122 152 207 296 155 223 211 141 155 72 340 106 303 295 336 326
245 267 304 325 335 339 343 344 345 347 351 17 140 175 201 183 154 200 213 115 135 92 353 323 11 169 224 166 223 197 162 110 26 144 212 195 270 139 191 218 346 173 186 43 278 331 322
244 263 291 309 321 331 337 340 345 347 356 13 148 187 199 178 200 228 202 163 136 4 330 300 299 325 167 183 195 217 236 40 15 277 215 151 261 238 77 88 353 319 14 328 332 340 324
240 247 265 289 309 324 331 338 342 350 3 29 63 93 167 179 201 201 128 148 201 276 321 311 319 0 59 106 159 177 154 84 66 210 210 179 199 202 174 176 183 236 142 106 346 273 300
233 244 257 274 295 313 322 332 339 347 356 11 295 169 154 180 287 216 184 196 204 200 274 269 296 258 190 130 82 143 145 95 116 135 111 179 168 270 290 38 58 178 195 223 272 289 327
229 236 246 262 281 297 314 326 338 342 351 6 353 89 245 179 186 207 199 181 218 218 214 234 207 243 198 176 157 123 127 140 129 129 114 272 200 200 92 94 100 308 272 241 275 317 304
231 235 243 255 266 282 302 319 333 340 348 36 359 278 154 122 144 172 169 205 209 184 225 178 244 175 196 204 5 139 147 206 86 143 129 15 165 178 162 146 263 281 290 279 276 311 300
237 234 237 245 255 267 285 308 328 345 6 44 65 52 331 164 168 207 180 169 177 196 182 292 302 234 204 73 47 69 72 77 79 165 136 178 151 211 268 144 267 261 291 297 302 293 325
248 244 236 238 243 253 262 284 315 343 26 68 56 68 279 156 212 193 168 188 176 122 34 26 14 255 84 108 108 101 101 103 100 80 60 155 170 243 303 207 262 50 72 281 291 295 302
237 249 247 236 237 241 249 257 284 303 331 60 85 80 307 186 204 174 175 180 184 182 197 347 51 56 166 229 195 175 173 197 114 56 63 305 236 208 273 276 308 276 184 228 273 290 318
233 244 257 243 236 237 242 247 254 270 273 266 173 170 8 282 171 83 191 174 207 200 179 147 54 140 167 240 221 220 224 237 172 151 101 128 240 268 269 282 285 329 60 352 258 279 70
229 244 253 252 238 236 237 242 242 247 254 245 220 191 171 256 131 248 222 234 208 218 263 136 119 169 192 220 226 223 226 281 228 238 177 208 244 266 285 287 294 32 29 160 260 332 68
230 245 254 256 248 235 230 234 235 233 238 232 227 203 184 233 266 209 290 262 243 237 252 93 208 200 216 240 247 201 261 198 255 344 267 260 261 264 306 284 284 56 146 265 20 37 75
232 241 254 258 236 224 219 224 226 225 226 220 221 211 206 212 278 227 214 208 195 71 296 240 326 338 337 256 233 292 225 201 273 235 175 245 291 319 254 310 32 322 265 335 291 15 122